Location: Etzleinsberg
(48.4833°N, 14.0333°E)
Time: 04:17:17
(UTC+00:00)

Okean 3 Rocket - Pass Details

Date: 07 June 2020
Orbit: 614 x 646 km, 82.5° (Epoch: 10 July)

Event Time Altitude Azimuth Distance (km) Brightness Sun altitude
Exits shadow 01:44:43 - 173° (S) 2,552 6.3 -10.1°
Reaches altitude 10° 01:46:00 10° 170° (S) 2,041 5.8 -9.9°
Maximum altitude 01:50:24 52° 94° (E) 807 4.4 -9.5°
Drops below altitude 10° 01:54:50 10° 19° (NNE) 2,055 7.5 -9.0°
Sets 01:57:08 0° 14° (NNE) 2,967 8.4 -8.8°
